Вернуться в каталог

EKRAN 4

АктивенСвязьGEO
NORAD 11561·PAYLOAD·🇷🇺 Russia

Запущен Oct 3, 1979 с Baikonur Cosmodrome

Loading…

TLE

СвежийSource: Space-Track

Эпоха: Sep 14, 2026, 14:13 UTC

1 11561U 79087A   26257.59286775 -.00000227  00000-0  00000-0 0  9998
2 11561   5.3777 283.8696 0010571 228.9114 143.5562  1.00233462 48276

Отслеживайте EKRAN 4 в реальном времени с AllMySat

Download on the App Store